Вернуться в каталог

EUTE 36A

EUTE W4

АктивенСвязьGEO
NORAD 26369·PAYLOAD·🇪🇺 EU

Запущен May 24, 2000 с Cape Canaveral Space Force Station

Loading…

TLE

СвежийSource: Space-Track

Эпоха: Sep 14, 2026, 13:56 UTC

1 26369U 00028A   26257.58073288 -.00000230  00000-0  00000-0 0  9995
2 26369   8.8025  60.9204 0008271 256.6065  49.3454  0.98472276 96009

Отслеживайте EUTE 36A в реальном времени с AllMySat

Download on the App Store